Thomasville, PA

8:07 AM EST on February 07, 2016 (GMT -0500)
York

Weather History for KTHV - July, 2013

Change the Weather History Date:

Thursday, July 18, 2013

  Actual Average Record
Temperature  
Mean Temperature 82 °F -  
Max Temperature 95 °F 89 °F 96 °F (2012)
Min Temperature 71 °F 66 °F 52 °F (2014)
Cooling Degree Days 17    
Growing Degree Days 32 (Base 50)    
Moisture  
Dew Point 70 °F    
Average Humidity 66    
Maximum Humidity 90    
Minimum Humidity 44    
Precipitation  
Precipitation 0.00 in - - ()
Sea Level Pressure  
Sea Level Pressure 30.07 in    
Wind  
Wind Speed 2 mph (WNW)    
Max Wind Speed 9 mph    
Max Gust Speed 18 mph    
Visibility 9 miles    
Events Thunderstorm    
Averages and records for this station are not official NWS values.
T = Trace of Precipitation, MM = Missing Value Source: NWS Daily Summary

Daily Weather History Graph

Daily Weather History Graph

Search for Another Location

Airport or City:

Trip Planner

Search our weather history database for the weather conditions in past years. The results will help you decide how hot, cold, wet, or windy it might be!

Date:

Astronomy

Jul. 18, 2013 Rise Set
Actual Time 5:54 AM EDT 8:33 PM EDT
Civil Twilight 5:22 AM EDT 9:04 PM EDT
Nautical Twilight 4:43 AM EDT 9:43 PM EDT
Astronomical Twilight 3:58 AM EDT 10:27 PM EDT
Moon 4:27 PM EDT (7/18) 1:42 AM EDT (7/18)
Length of Visible Light 15h 41m
Length of Day
14h 38m
Waxing Gibbous, 77% of the Moon is Illuminated
Jul 18
Waxing Gibbous
Jul 22
Full
Jul 29
Last Quarter
Aug 6
New
Aug 14
First Quarter

Hourly Weather History & Observations

Time (EDT) Temp. Heat Index Dew Point Humidity Pressure Visibility Wind Dir Wind Speed Gust Speed Precip Events Conditions
12:53 AM 75.9 °F - 68.0 °F 76% 30.12 in 10.0 mi Calm Calm - N/A   Clear
1:53 AM 73.0 °F - 69.1 °F 87% 30.12 in 10.0 mi Calm Calm - N/A   Clear
2:53 AM 73.0 °F - 68.0 °F 84% 30.10 in 9.0 mi Calm Calm - N/A   Clear
3:53 AM 72.0 °F - 68.0 °F 87% 30.09 in 8.0 mi Calm Calm - N/A   Clear
4:53 AM 71.1 °F - 68.0 °F 90% 30.10 in 6.0 mi Calm Calm - N/A   Clear
5:53 AM 71.1 °F - 68.0 °F 90% 30.11 in 5.0 mi Calm Calm - N/A   Clear
6:53 AM 75.0 °F - 70.0 °F 84% 30.11 in 5.0 mi Calm Calm - N/A   Haze
7:53 AM 81.0 °F 85.2 °F 72.0 °F 74% 30.12 in 9.0 mi WNW 3.5 mph - N/A   Clear
8:53 AM 84.0 °F 89.6 °F 72.0 °F 67% 30.12 in 10.0 mi Variable 3.5 mph - N/A   Clear
9:53 AM 87.1 °F 94.5 °F 73.0 °F 63% 30.11 in 10.0 mi Variable 4.6 mph - N/A   Clear
10:53 AM 89.1 °F 97.0 °F 73.0 °F 59% 30.11 in 10.0 mi NW 3.5 mph - N/A   Clear
11:53 AM 91.0 °F 96.6 °F 70.0 °F 50% 30.10 in 10.0 mi Calm Calm - N/A   Clear
12:53 PM 91.9 °F 98.4 °F 71.1 °F 50% 30.09 in 10.0 mi WNW 8.1 mph - N/A   Clear
1:53 PM 91.9 °F 97.4 °F 70.0 °F 48% 30.08 in 10.0 mi WNW 3.5 mph - N/A   Clear
2:53 PM 93.0 °F 99.0 °F 70.0 °F 47% 30.06 in 10.0 mi Variable 3.5 mph - N/A   Scattered Clouds
3:53 PM 93.9 °F 99.1 °F 69.1 °F 44% 30.03 in 10.0 mi West 3.5 mph - N/A   Partly Cloudy
4:53 PM 93.9 °F 99.1 °F 69.1 °F 44% 30.02 in 10.0 mi Variable 3.5 mph - N/A   Clear
5:53 PM 93.0 °F 97.9 °F 69.1 °F 45% 30.00 in 10.0 mi Calm Calm - N/A   Scattered Clouds
6:13 PM 89.6 °F 98.2 °F 73.4 °F 59% 30.03 in 10.0 mi Calm Calm - N/A Thunderstorm Mostly Cloudy
6:46 PM 87.8 °F 93.8 °F 71.6 °F 58% 30.03 in 10.0 mi WSW 9.2 mph 18.4 mph N/A   Mostly Cloudy
6:53 PM 87.1 °F 92.8 °F 71.1 °F 59% 30.03 in 10.0 mi WSW 6.9 mph 17.3 mph N/A   Mostly Cloudy
7:53 PM 84.9 °F 87.6 °F 66.9 °F 55% 30.04 in 10.0 mi North 4.6 mph - N/A   Partly Cloudy
8:53 PM 80.1 °F 83.2 °F 70.0 °F 71% 30.02 in 10.0 mi Calm Calm - N/A   Partly Cloudy
9:53 PM 78.1 °F - 70.0 °F 76% 30.01 in 10.0 mi Calm Calm - N/A   Unknown
10:53 PM 81.0 °F 84.1 °F 69.1 °F 67% 30.01 in 10.0 mi Calm Calm - N/A   Clear
11:53 PM 75.9 °F - 70.0 °F 82% 30.02 in 10.0 mi WSW 3.5 mph - N/A   Clear